GW5874 Weather Reports


time (UTC)temp
F
wind
direction
speed
knots
gust
knots
rain 1hr
in
rain 24hr
in
rain mn
in
humidity
%
barometer
mb
20260509192019 83 269 0.0 0.0 0.00 0.00 0.00 38 1011.3
20260509191513 83 275 0.0 0.9 0.00 0.00 0.00 34 1011.2
20260509191009 81 249 0.9 0.9 0.00 0.00 0.00 40 1011.2
20260509190506 82 243 0.9 0.9 0.00 0.00 0.00 33 1011.1
20260509190005 82 271 1.7 2.6 0.00 0.00 0.00 38 1011.3
20260509185501 82 323 1.7 2.6 0.00 0.00 0.00 42 1011.3
20260509184958 81 215 0.9 0.9 0.00 0.00 0.00 42 1011.3
20260509184457 81 205 1.7 2.6 0.00 0.00 0.00 41 1011.2
20260509183953 81 268 0.9 0.9 0.00 0.00 0.00 43 1011.3
20260509183452 80 318 2.6 3.5 0.00 0.00 0.00 35 1011.3
20260509182949 81 297 1.7 2.6 0.00 0.00 0.00 48 1011.2
20260509182445 80 213 1.7 2.6 0.00 0.00 0.00 40 1011.3
20260509181943 80 235 3.5 3.5 0.00 0.00 0.00 35 1011.3
20260509181441 82 269 0.9 0.9 0.00 0.00 0.00 40 1011.5
20260509180939 81 279 0.9 0.9 0.00 0.00 0.00 42 1011.4
20260509180434 80 253 0.9 0.9 0.00 0.00 0.00 44 1011.5
20260509175931 80 227 0.0 0.0 0.00 0.00 0.00 38 1011.5
20260509175427 80 325 0.9 0.9 0.00 0.00 0.00 45 1011.7
20260509174923 80 272 0.9 2.6 0.00 0.00 0.00 42 1011.6
20260509174419 79 273 0.9 0.9 0.00 0.00 0.00 47 1011.6
20260509173915 80 284 0.9 0.9 0.00 0.00 0.00 45 1011.4
20260509173415 80 264 0.0 0.9 0.00 0.00 0.00 50 1011.5
20260509172912 79 272 1.7 2.6 0.00 0.00 0.00 55 1011.5
20260509172409 78 273 1.7 2.6 0.00 0.00 0.00 50 1011.6
20260509171904 78 192 3.5 4.3 0.00 0.00 0.00 50 1011.7
20260509171400 78 92 2.6 3.5 0.00 0.00 0.00 47 1011.7
20260509170857 78 203 2.6 3.5 0.00 0.00 0.00 47 1011.8
20260509170353 80 316 1.7 2.6 0.00 0.00 0.00 48 1011.7
20260509165848 79 270 1.7 2.6 0.00 0.00 0.00 51 1011.9
20260509165342 78 196 0.9 2.6 0.00 0.00 0.00 55 1011.7
20260509164838 77 43 0.9 0.9 0.00 0.00 0.00 55 1011.7
20260509164335 77 186 3.5 3.5 0.00 0.00 0.00 55 1011.7
20260509163831 76 87 0.0 0.9 0.00 0.00 0.00 61 1011.7
20260509163328 77 170 1.7 2.6 0.00 0.00 0.00 59 1011.7
20260509162828 76 240 0.0 0.0 0.00 0.00 0.00 60 1011.6
20260509162325 75 11 0.9 0.9 0.00 0.00 0.00 60 1011.8
20260509161822 76 181 2.6 3.5 0.00 0.00 0.00 59 1011.7
20260509161319 76 197 1.7 3.5 0.00 0.00 0.00 67 1011.6
20260509160814 75 276 0.9 0.9 0.00 0.00 0.00 64 1011.5
20260509160310 75 209 2.6 3.5 0.00 0.00 0.00 62 1011.9
20260509155806 75 249 1.7 2.6 0.00 0.00 0.00 66 1011.6
20260509155306 75 236 1.7 2.6 0.00 0.00 0.00 66 1011.7
20260509154758 74 238 0.9 0.9 0.00 0.00 0.00 69 1011.7
20260509154256 73 156 0.0 0.0 0.00 0.00 0.00 68 1011.6
20260509153753 73 207 1.7 2.6 0.00 0.00 0.00 71 1011.7
20260509153248 72 205 1.7 3.5 0.00 0.00 0.00 71 1011.6
20260509152746 72 253 0.0 0.9 0.00 0.00 0.00 71 1011.6
20260509152242 71 241 2.6 3.5 0.00 0.00 0.00 72 1011.9
20260509151739 70 216 0.0 0.0 0.00 0.00 0.00 75 1011.7
20260509151235 70 226 0.0 0.9 0.00 0.00 0.00 73 1011.7
20260509150734 70 248 2.6 3.5 0.00 0.00 0.00 74 1011.8
20260509150232 69 202 1.7 2.6 0.00 0.00 0.00 74 1011.6
20260509145728 68 197 0.9 0.9 0.00 0.00 0.00 77 1011.6
20260509145223 68 249 4.3 4.3 0.00 0.00 0.00 76 1011.6
20260509144719 67 202 0.0 0.0 0.00 0.00 0.00 77 1011.7
20260509144216 66 251 2.6 3.5 0.00 0.00 0.00 77 1011.8
20260509143714 66 230 1.7 2.6 0.00 0.00 0.00 79 1011.7
20260509143211 66 223 1.7 2.6 0.00 0.00 0.00 77 1011.8
20260509142706 67 217 2.6 3.5 0.00 0.00 0.00 75 1011.8
20260509142203 66 230 1.7 2.6 0.00 0.00 0.00 76 1011.6
20260509141658 65 340 0.0 0.9 0.00 0.00 0.00 81 1011.8
20260509141156 64 218 0.0 0.9 0.00 0.00 0.00 82 1011.8
20260509140652 64 205 1.7 2.6 0.00 0.00 0.00 83 1011.7
20260509140150 63 246 0.0 0.9 0.00 0.00 0.00 82 1011.7
20260509135647 62 235 0.9 0.9 0.00 0.00 0.00 84 1011.6
20260509135146 61 195 0.9 2.6 0.00 0.00 0.00 87 1011.6
20260509134641 59 297 0.0 0.0 0.00 0.00 0.00 90 1011.5
20260509134139 60 341 0.9 0.9 0.00 0.00 0.00 91 1011.5
20260509133636 60 309 0.0 0.0 0.00 0.00 0.00 97 1011.5
20260509133133 58 164 0.9 0.9 0.00 0.00 0.00 99 1011.4
20260509132631 57 123 0.0 0.0 0.00 0.00 0.00 99 1011.3
20260509132130 56 340 0.0 0.0 0.00 0.00 0.00 99 1011.4
20260509131625 57 317 0.0 0.0 0.00 0.00 0.00 99 1011.3
20260509131123 55 165 0.0 0.0 0.00 0.00 0.00 99 1011.5
20260509130618 53 249 0.0 0.0 0.00 0.00 0.00 99 1011.4
20260509130115 51 327 0.9 0.9 0.00 0.00 0.00 99 1011.4
20260509125611 52 336 0.9 0.9 0.00 0.00 0.00 99 1011.5
20260509125108 51 204 0.0 0.9 0.00 0.00 0.00 99 1011.5
20260509124605 51 193 0.9 0.9 0.00 0.00 0.00 99 1011.3
20260509124102 50 254 0.0 0.0 0.00 0.00 0.00 99 1011.0
20260509123600 50 255 0.0 0.0 0.00 0.00 0.00 99 1011.2
20260509123056 49 254 0.0 0.0 0.00 0.00 0.00 99 1011.2
20260509122552 48 254 0.0 0.0 0.00 0.00 0.00 99 1011.2
20260509122050 48 289 0.0 0.0 0.00 0.00 0.00 99 1011.1
20260509121546 47 290 0.0 0.0 0.00 0.00 0.00 99 1011.0
20260509121048 47 290 0.0 0.0 0.00 0.00 0.00 99 1010.8
20260509120542 46 251 0.0 0.0 0.00 0.00 0.00 99 1011.1
20260509120040 46 273 0.0 0.0 0.00 0.00 0.00 99 1010.9
20260509115536 46 271 0.0 0.0 0.00 0.00 0.00 99 1010.9
20260509115034 46 293 0.0 0.0 0.00 0.00 0.00 99 1010.8
20260509114532 46 276 0.0 0.0 0.00 0.00 0.00 99 1010.8
20260509114031 46 227 0.0 0.0 0.00 0.00 0.00 99 1010.7
20260509113529 46 226 0.0 0.0 0.00 0.00 0.00 99 1010.4
20260509113026 46 226 0.0 0.0 0.00 0.00 0.00 99 1010.4
20260509112522 46 226 0.0 0.0 0.00 0.00 0.00 99 1010.4
20260509112019 46 266 0.0 0.0 0.00 0.00 0.00 99 1010.5
20260509111517 46 262 0.0 0.0 0.00 0.00 0.00 99 1010.7
20260509111014 46 262 0.0 0.0 0.00 0.00 0.00 99 1010.5
20260509110510 47 262 0.0 0.0 0.00 0.00 0.00 99 1010.4
20260509110007 47 262 0.0 0.0 0.00 0.00 0.00 99 1010.4
20260509105506 46 260 0.0 0.0 0.00 0.00 0.00 99 1010.6
20260509105003 46 260 0.0 0.0 0.00 0.00 0.00 99 1010.4
20260509104459 47 260 0.0 0.0 0.00 0.00 0.00 99 1010.7
20260509103957 47 260 0.0 0.0 0.00 0.00 0.00 99 1010.4
20260509103454 47 260 0.0 0.0 0.00 0.00 0.00 99 1010.4
20260509102952 47 260 0.0 0.0 0.00 0.00 0.00 98 1010.4
20260509102449 47 261 0.0 0.0 0.00 0.00 0.00 98 1010.5
20260509101946 47 261 0.0 0.0 0.00 0.00 0.00 98 1010.2
20260509101442 48 261 0.0 0.0 0.00 0.00 0.00 98 1010.5
20260509100939 48 261 0.0 0.0 0.00 0.00 0.00 98 1010.4
20260509100437 47 260 0.0 0.0 0.00 0.00 0.00 98 1010.4
20260509095933 48 260 0.0 0.0 0.00 0.00 0.00 98 1010.6
20260509095430 48 260 0.0 0.0 0.00 0.00 0.00 98 1010.5
20260509094927 48 260 0.0 0.0 0.00 0.00 0.00 98 1010.6
20260509094424 48 260 0.0 0.0 0.00 0.00 0.00 98 1010.6
20260509093922 48 286 0.0 0.0 0.00 0.00 0.00 98 1010.6
20260509093419 48 286 0.0 0.0 0.00 0.00 0.00 98 1010.5
20260509092917 48 286 0.0 0.0 0.00 0.00 0.00 98 1010.4
20260509092414 48 286 0.0 0.0 0.00 0.00 0.00 98 1010.6
20260509091913 48 286 0.0 0.0 0.00 0.00 0.00 98 1010.5
20260509091409 49 286 0.0 0.0 0.00 0.00 0.00 98 1010.7
20260509090907 49 286 0.0 0.0 0.00 0.00 0.00 98 1010.4
20260509090403 48 286 0.0 0.0 0.00 0.00 0.00 98 1010.6
20260509085901 49 286 0.0 0.0 0.00 0.00 0.00 98 1010.6
20260509085358 49 286 0.0 0.0 0.00 0.00 0.00 98 1010.7
20260509084854 50 286 0.0 0.0 0.00 0.00 0.00 98 1010.9
20260509084351 50 286 0.0 0.0 0.00 0.00 0.00 98 1010.9
20260509083849 50 286 0.0 0.0 0.00 0.00 0.00 98 1010.9
20260509083345 50 285 0.0 0.0 0.00 0.00 0.00 98 1010.9
20260509082842 50 284 0.0 0.0 0.00 0.00 0.00 98 1010.8
20260509082339 50 284 0.0 0.0 0.00 0.00 0.00 98 1010.9
20260509081837 50 295 0.0 0.0 0.00 0.00 0.00 98 1010.8
20260509081333 50 298 0.0 0.0 0.00 0.00 0.00 97 1010.6
20260509080831 50 293 0.0 0.0 0.00 0.00 0.00 97 1010.6
20260509080329 50 283 0.0 0.0 0.00 0.00 0.00 97 1010.9
20260509075827 50 283 0.0 0.0 0.00 0.00 0.00 97 1011.0
20260509075324 50 284 0.0 0.0 0.00 0.00 0.00 97 1010.7
20260509074821 50 300 0.0 0.0 0.00 0.00 0.00 97 1010.4
20260509074319 50 300 0.0 0.0 0.00 0.00 0.00 97 1010.4
20260509073815 51 300 0.0 0.0 0.00 0.00 0.00 97 1010.5
20260509073311 50 300 0.0 0.0 0.00 0.00 0.00 97 1010.5
20260509072808 51 300 0.0 0.0 0.00 0.00 0.00 97 1010.6
20260509072306 51 300 0.0 0.0 0.00 0.00 0.00 97 1010.7
20260509071801 51 301 0.0 0.0 0.00 0.00 0.00 97 1010.5
20260509071258 51 301 0.0 0.0 0.00 0.00 0.00 97 1010.7
20260509070755 51 282 0.0 0.0 0.00 0.00 0.00 96 1010.6
20260509070251 51 282 0.0 0.0 0.00 0.00 0.00 96 1010.8
20260509065748 51 282 0.0 0.0 0.00 0.00 0.00 96 1010.9
20260509065244 51 282 0.0 0.0 0.00 0.00 0.00 96 1010.6
20260509064741 51 282 0.0 0.0 0.00 0.00 0.00 96 1010.8
20260509064238 51 282 0.0 0.0 0.00 0.00 0.00 96 1010.7
20260509063736 52 282 0.0 0.0 0.00 0.00 0.00 96 1010.9
20260509063232 52 282 0.0 0.0 0.00 0.00 0.00 96 1010.9
20260509062729 52 282 0.0 0.0 0.00 0.00 0.00 95 1010.8
20260509062226 52 282 0.0 0.0 0.00 0.00 0.00 95 1010.9
20260509061723 52 282 0.0 0.0 0.00 0.00 0.00 95 1010.9
20260509061221 52 282 0.0 0.0 0.00 0.00 0.00 95 1010.9
20260509060718 52 282 0.0 0.0 0.00 0.00 0.00 94 1011.0
20260509060214 53 282 0.0 0.0 0.00 0.00 0.00 94 1010.8
20260509055710 53 283 0.0 0.0 0.00 0.00 0.00 94 1011.0
20260509055206 53 282 0.0 0.0 0.00 0.00 0.00 94 1011.1
20260509054703 53 281 0.0 0.0 0.00 0.00 0.00 93 1010.9
20260509054200 54 310 0.0 0.0 0.00 0.00 0.00 93 1011.1
20260509053659 54 311 0.0 0.0 0.00 0.00 0.00 93 1011.0
20260509053155 54 313 0.9 0.9 0.00 0.00 0.00 93 1010.9
20260509052653 54 314 0.9 0.9 0.00 0.00 0.00 93 1010.9
20260509052150 54 292 0.9 0.9 0.00 0.00 0.00 93 1011.0
20260509051648 54 296 0.0 0.9 0.00 0.00 0.00 93 1010.9
20260509051145 55 296 0.9 0.9 0.00 0.00 0.00 92 1011.1
20260509050642 55 290 0.0 0.0 0.00 0.00 0.00 92 1010.9
20260509050138 55 291 0.0 0.0 0.00 0.00 0.00 92 1010.9
20260509045636 54 299 0.0 0.0 0.00 0.00 0.00 93 1010.8
20260509045133 54 280 0.0 0.0 0.00 0.00 0.00 93 1010.7
20260509044630 54 318 0.0 0.0 0.00 0.00 0.00 92 1010.9
20260509044127 54 319 0.9 0.9 0.00 0.00 0.00 92 1010.9
20260509043624 55 318 0.0 0.0 0.00 0.00 0.00 91 1010.9
20260509043119 55 318 0.0 0.0 0.00 0.00 0.00 90 1010.9
20260509042616 55 318 0.0 0.0 0.00 0.00 0.00 90 1010.9
20260509042112 55 318 0.0 0.0 0.00 0.00 0.00 89 1011.0
20260509041609 55 318 0.0 0.0 0.00 0.00 0.00 88 1011.0
20260509041106 56 318 0.0 0.0 0.00 0.00 0.00 88 1010.8
20260509040605 56 318 0.0 0.0 0.00 0.00 0.00 87 1011.0
20260509040101 56 318 0.0 0.0 0.00 0.00 0.00 86 1011.0
20260509035558 57 319 0.0 0.0 0.00 0.00 0.00 85 1010.7
20260509035054 57 319 0.0 0.0 0.00 0.00 0.00 84 1010.7
20260509034553 57 319 0.0 0.0 0.00 0.00 0.00 83 1010.9
20260509034049 57 299 0.0 0.9 0.00 0.00 0.00 84 1010.7
20260509033547 57 298 0.0 0.0 0.00 0.00 0.00 84 1010.6
20260509033043 58 299 0.9 0.9 0.00 0.00 0.00 83 1010.5
20260509032541 59 279 0.0 0.0 0.00 0.00 0.00 81 1010.4
20260509032038 60 300 0.0 0.0 0.00 0.00 0.00 77 1010.4
20260509031535 61 286 0.0 0.0 0.00 0.00 0.00 77 1010.4
20260509031032 62 286 0.0 0.0 0.00 0.00 0.00 71 1010.4
20260509030531 64 256 0.0 0.0 0.00 0.00 0.00 71 1010.2
20260509030027 64 294 0.9 0.9 0.00 0.00 0.00 65 1009.9
20260509025523 63 295 1.7 2.6 0.00 0.00 0.00 66 1009.7
20260509025019 63 277 0.0 0.0 0.00 0.00 0.00 75 1009.9
20260509024515 64 273 0.0 0.0 0.00 0.00 0.00 68 1009.7
20260509024012 62 289 1.7 2.6 0.00 0.00 0.00 70 1009.7
20260509023509 60 294 1.7 2.6 0.00 0.00 0.00 76 1009.5
20260509023006 61 241 0.0 0.0 0.00 0.00 0.00 80 1009.5
20260509022502 61 249 0.0 0.9 0.00 0.00 0.00 75 1009.2
20260509022000 60 284 0.0 0.0 0.00 0.00 0.00 82 1009.0
20260509021457 60 295 0.0 0.0 0.00 0.00 0.00 81 1008.9
20260509020954 61 228 0.0 0.9 0.00 0.00 0.00 79 1008.8
20260509020452 62 326 0.9 0.9 0.00 0.00 0.00 78 1008.4
20260509015949 62 302 0.0 0.9 0.00 0.00 0.00 76 1008.4
20260509015448 62 281 0.0 0.0 0.00 0.00 0.00 74 1008.3
20260509014944 63 281 0.0 0.0 0.00 0.00 0.00 74 1008.0
20260509014441 63 282 0.0 0.0 0.00 0.00 0.00 70 1007.9
20260509013937 64 281 0.0 0.0 0.00 0.00 0.00 71 1007.6
20260509013434 66 343 0.0 0.0 0.00 0.00 0.00 71 1007.5
20260509012930 67 13 0.9 0.9 0.00 0.00 0.00 62 1007.2
20260509012427 67 315 0.0 0.9 0.00 0.00 0.00 59 1007.4
20260509011924 67 309 0.0 0.9 0.00 0.00 0.00 61 1007.3
20260509011421 68 280 0.0 0.0 0.00 0.00 0.00 60 1007.2
20260509010919 67 283 0.0 0.0 0.00 0.00 0.00 61 1007.0
20260509010416 67 122 0.9 0.9 0.00 0.00 0.00 62 1006.8
20260509005913 67 209 0.9 0.9 0.00 0.00 0.00 60 1007.1
20260509005411 68 203 1.7 2.6 0.00 0.00 0.00 61 1007.3
20260509004911 67 322 2.6 3.5 0.00 0.00 0.00 61 1007.8
20260509004408 68 253 0.9 0.9 0.00 0.00 0.00 61 1007.7
20260509003905 68 339 0.9 0.9 0.00 0.00 0.00 58 1007.2
20260509003403 69 339 1.7 2.6 0.00 0.00 0.00 55 1007.6
20260509002900 69 326 2.6 3.5 0.00 0.00 0.00 57 1007.8
20260509002358 70 315 1.7 2.6 0.00 0.00 0.00 56 1007.4
20260509001855 70 204 6.1 8.7 0.00 0.00 0.00 52 1007.1
20260509001351 70 322 0.0 2.6 0.00 0.00 0.00 51 1006.5
20260509000848 69 255 8.7 13.0 0.00 0.00 0.00 48 1006.3
20260509000348 69 305 0.9 2.6 0.00 0.00 0.00 55 1006.2
20260508235842 69 114 2.6 3.5 0.00 0.00 0.00 57 1006.3
20260508235339 68 227 4.3 7.0 0.00 0.00 0.00 63 1007.2
20260508234836 68 206 4.3 7.0 0.00 0.00 0.00 61 1007.1
20260508234332 68 194 7.0 7.0 0.00 0.00 0.00 62 1006.8
20260508233831 69 271 0.9 0.9 0.00 0.00 0.00 65 1007.5
20260508233330 68 181 4.3 6.1 0.00 0.00 0.00 62 1007.4
20260508232826 68 227 3.5 4.3 0.00 0.00 0.00 64 1008.0
20260508232323 68 241 0.0 0.9 0.00 0.00 0.00 70 1008.1
20260508231821 69 23 1.7 2.6 0.00 0.00 0.00 66 1008.0
20260508231317 69 156 0.9 0.9 0.00 0.00 0.00 66 1008.3
20260508230814 70 291 0.9 0.9 0.00 0.00 0.00 63 1008.3
20260508230310 71 261 0.0 0.0 0.00 0.00 0.00 58 1008.2
20260508225808 72 139 3.5 3.5 0.00 0.00 0.00 56 1007.9
20260508225306 72 209 0.0 0.0 0.00 0.00 0.00 56 1008.1
20260508224803 72 281 0.9 0.9 0.00 0.00 0.00 55 1008.2
20260508224300 73 309 0.9 0.9 0.00 0.00 0.00 54 1008.5
20260508223757 73 273 0.0 0.9 0.00 0.00 0.00 53 1008.7
20260508223255 74 284 1.7 2.6 0.00 0.00 0.00 51 1008.9
20260508222752 74 285 1.7 2.6 0.00 0.00 0.00 52 1008.8
20260508222249 74 75 0.9 0.9 0.00 0.00 0.00 51 1009.0
20260508221745 74 269 1.7 2.6 0.00 0.00 0.00 49 1008.8
20260508221241 75 277 1.7 2.6 0.00 0.00 0.00 50 1008.7
20260508220737 75 216 1.7 2.6 0.00 0.00 0.00 52 1008.7
20260508220234 77 12 1.7 4.3 0.00 0.00 0.00 48 1008.4
20260508215730 77 274 1.7 2.6 0.00 0.00 0.00 46 1008.2
20260508215227 77 260 0.9 0.9 0.00 0.00 0.00 43 1008.2
20260508214724 77 255 3.5 4.3 0.00 0.00 0.00 43 1008.2
20260508214222 78 207 7.0 8.7 0.00 0.00 0.00 43 1008.0
20260508213718 78 210 1.7 2.6 0.00 0.00 0.00 45 1008.1
20260508213215 80 275 0.0 0.9 0.00 0.00 0.00 45 1008.1
20260508212711 81 290 0.0 0.9 0.00 0.00 0.00 41 1008.2
20260508212208 80 278 1.7 2.6 0.00 0.00 0.00 43 1008.2
20260508211703 80 189 4.3 6.1 0.00 0.00 0.00 42 1008.2
20260508211159 81 305 0.9 0.9 0.00 0.00 0.00 44 1008.3
20260508210657 80 285 1.7 3.5 0.00 0.00 0.00 43 1008.4
20260508210154 79 272 0.0 0.9 0.00 0.00 0.00 47 1008.5
20260508205651 79 324 1.7 2.6 0.00 0.00 0.00 41 1008.7
20260508205147 79 238 0.0 0.0 0.00 0.00 0.00 46 1008.5
20260508204643 77 261 1.7 2.6 0.00 0.00 0.00 45 1008.5
20260508204139 78 243 6.1 7.0 0.00 0.00 0.00 43 1008.5
20260508203636 77 211 7.8 10.4 0.00 0.00 0.00 41 1008.5
20260508203132 78 188 7.0 8.7 0.00 0.00 0.00 42 1008.6
20260508202628 78 219 3.5 4.3 0.00 0.00 0.00 43 1008.8
20260508202125 76 209 3.5 3.5 0.00 0.00 0.00 41 1008.8
20260508201622 77 65 4.3 6.1 0.00 0.00 0.00 43 1008.9
20260508201119 76 220 7.0 9.6 0.00 0.00 0.00 43 1009.2
20260508200616 77 233 7.8 9.6 0.00 0.00 0.00 42 1009.2
20260508200112 77 245 5.2 8.7 0.00 0.00 0.00 43 1009.3
20260508195609 77 254 5.2 7.0 0.00 0.00 0.00 42 1009.2
20260508195105 77 138 3.5 4.3 0.00 0.00 0.00 44 1009.2
20260508194602 76 185 3.5 7.0 0.00 0.00 0.00 46 1009.3
20260508194059 77 198 10.4 13.0 0.00 0.00 0.00 41 1009.2
20260508193555 77 242 1.7 2.6 0.00 0.00 0.00 45 1009.4
20260508193052 77 202 4.3 4.3 0.00 0.00 0.00 47 1009.5
20260508192549 77 89 3.5 4.3 0.00 0.00 0.00 45 1009.6